Regional Weather Roundup
Issued by NWS

Home | Current Version | Previous Version | Text Only | Print | Product List | Glossary Off
Versions: 1 2 3 4 5 6 7 8 9 10 11 12 13 14 15 16 17 18 19 20 21 22 23 24 25 26 27 28 29 30 31 32 33 34 35 36 37 38 39 40 41 42 43 44 45 46 47 48 49 50

000
ASUS45 KCYS 031010
RWRWY

WYOMING REGIONAL WEATHER ROUNDUP
NATIONAL WEATHER SERVICE CHEYENNE WY
400 AM MDT TUE MAY 03 2016

NOTE:  "FAIR" INDICATES FEW OR NO CLOUDS BELOW 12,000 FEET
WITH NO SIGNIFICANT WEATHER AND/OR OBSTRUCTIONS TO VISIBILITY.

WYZ001-031100-
YELLOWSTONE NATIONAL PARK

CITY           SKY/WX    TMP DP  RH WIND       PRES   REMARKS
LK YELLOWSTONE   N/A     27  22  81 CALM      30.33R
W YELLOWSTONE  NOT AVBL

$$
WYZ002>013-054>058-071-098>099-031100-
NORTHERN WYOMING

CITY           SKY/WX    TMP DP  RH WIND       PRES   REMARKS
JACKSON        FAIR      30  27  86 N3        30.28R
CODY           FAIR      46  28  49 SW6       30.18S
GREYBULL       FAIR      43  30  60 SE5       30.15R
WORLAND        FAIR      40  34  79 SW6       30.15R
SHERIDAN       FAIR      41  32  70 S3        30.13S
BUFFALO          N/A    N/A N/A N/A MISG      30.17R
GILLETTE       FAIR      42  36  79 W9        30.12S
HULETT         FAIR      37  34  87 S8        30.12S WCI  31
NEWCASTLE      FAIR      37  32  81 N10       30.12R WCI  30

$$
WYZ014>020-022>026-101>103-031100-
CENTRAL WYOMING

CITY           SKY/WX    TMP DP  RH WIND       PRES   REMARKS
BIG PINEY      FAIR      28  19  69 NE5       30.28R WCI  23
PINEDALE       FAIR      27  21  80 W5        30.29S WCI  21
DUBOIS         FAIR      32  23  69 W10       30.28S WCI  24
LANDER         FAIR      43  25  49 CALM      30.20S
RIVERTON       FAIR      42  31  64 NW3       30.21R
CASPER         FAIR      34  30  85 W9        30.20R WCI  27
DOUGLAS        FAIR      37  33  85 N7        30.18R WCI  32

$$
WYZ021-027>030-104>119-031100-
SOUTHERN WYOMING

CITY           SKY/WX    TMP DP  RH WIND       PRES   REMARKS
EVANSTON       FAIR      37  24  59 S7        30.27S WCI  32
KEMMERER         N/A     34  21  60 NW8       30.28R WCI  27
FORT BRIDGER   SUNNY     41  25  52 W10       30.29R
ROCK SPRINGS   FAIR      36  21  54 NE3       30.25S
DIXON          FAIR      32  22  67 E6        30.27S WCI  26
RAWLINS        FAIR      30  24  78 N7        30.25R WCI  23
SARATOGA       FAIR      28  23  80 SE9       30.27R WCI  20
LARAMIE        FAIR      26  24  92 S5        30.23R WCI  20
CHEYENNE       FAIR      40  28  62 NW13      30.16S WCI  32
TORRINGTON     MOCLDY    44  34  67 NW13      30.10R
PINE BLUFFS    FAIR      37  32  81 NW15      30.12S WCI  28

$$



USA.gov is the U.S. government's official web portal to all federal, state and local government web resources and services.